Starlink 3675

operational
NORAD ID: 51963 Int'l Des: 2022-025 Owner: SPXS Country: US Constellation: starlink
LEOCIRCULARSTARLINK_TYPE

About Starlink 3675

Description loading...

Live Position

Loading 3D Globe...

Upcoming Passes

Altitude History

Altitude vs Time

uPlot chart will show altitude changes over time

Two-Line Element Set

1 51963U 22025H 25352.10328600 .00000376 00000-0 44147-4 0 9992
2 51963 53.0563 27.8242 0001101 86.0394 274.0721 15.06400840208759
Epoch: Dec 18, 2025 • Age: 11 hours

Current Status

Altitude 566.5 km
Velocity 7.58 km/s
Sub-Earth Point -53.19°S, 8.34°E
Launch Date Mar 9, 2022
Age 3.7 years
Type internet

Technical Details

Classification Payload
Mass 297.00 kg
Dry Mass 275.00 kg
Total Mass 297.00 kg
Length 0.20 m
Diameter 2.80 m
Span 9.00 m
Shape Box + pan
Manufacturer SPXS
Bus Type Starlink
Phase Status In Orbit
Owner/State SPXS/US

Large Constellations

Loading constellations...